| time (UTC) | temp F | wind direction | speed knots | gust knots | rain 1hr in | rain 24hr in | rain mn in | humidity % | barometer mb |
| 20260504001804 | 66 | 147 | 0.9 | 0.9 | 0.00 | 0.06 | 0.00 | 80 | 1011.9 |
| 20260504001304 | 66 | 147 | 0.0 | 0.0 | 0.00 | 0.06 | 0.00 | 80 | 1012.0 |
| 20260504000803 | 66 | 147 | 0.0 | 0.0 | 0.00 | 0.06 | 0.00 | 80 | 1012.0 |
| 20260504000304 | 66 | 147 | 0.0 | 0.9 | 0.00 | 0.06 | 0.00 | 81 | 1012.1 |
| 20260503235804 | 66 | 147 | 1.7 | 2.6 | 0.00 | 0.06 | 0.00 | 81 | 1012.2 |
| 20260503235305 | 66 | 147 | 0.0 | 0.0 | 0.00 | 0.06 | 0.00 | 80 | 1012.3 |
| 20260503234804 | 66 | 147 | 0.0 | 2.6 | 0.00 | 0.06 | 0.00 | 80 | 1012.3 |
| 20260503233804 | 66 | 147 | 0.0 | 1.7 | 0.00 | 0.06 | 0.00 | 81 | 1012.4 |
| 20260503232804 | 66 | 148 | 0.0 | 0.0 | 0.00 | 0.06 | 0.00 | 81 | 1012.5 |
| 20260503232305 | 66 | 148 | 0.0 | 0.0 | 0.00 | 0.06 | 0.00 | 81 | 1012.5 |
| 20260503231805 | 66 | 148 | 0.0 | 0.0 | 0.00 | 0.06 | 0.00 | 81 | 1012.6 |
| 20260503231304 | 66 | 148 | 0.0 | 0.0 | 0.00 | 0.06 | 0.00 | 81 | 1012.7 |
| 20260503230804 | 66 | 148 | 0.0 | 0.0 | 0.00 | 0.06 | 0.00 | 80 | 1012.7 |
| 20260503225804 | 66 | 148 | 0.0 | 0.0 | 0.00 | 0.06 | 0.00 | 80 | 1012.7 |
| 20260503225305 | 66 | 148 | 0.0 | 0.0 | 0.00 | 0.06 | 0.00 | 80 | 1012.7 |
| 20260503224804 | 66 | 148 | 0.0 | 0.0 | 0.00 | 0.06 | 0.00 | 80 | 1012.6 |
| 20260503224304 | 66 | 148 | 0.0 | 0.0 | 0.00 | 0.06 | 0.00 | 80 | 1012.6 |
| 20260503223804 | 66 | 148 | 0.0 | 0.0 | 0.00 | 0.06 | 0.00 | 80 | 1012.6 |
| 20260503223304 | 66 | 148 | 0.0 | 0.0 | 0.00 | 0.06 | 0.00 | 80 | 1012.6 |
| 20260503222804 | 66 | 148 | 0.0 | 0.0 | 0.00 | 0.06 | 0.00 | 80 | 1012.6 |
| 20260503222304 | 66 | 148 | 0.0 | 4.3 | 0.00 | 0.06 | 0.00 | 80 | 1012.6 |
| 20260503221804 | 66 | 147 | 0.0 | 1.7 | 0.00 | 0.06 | 0.00 | 80 | 1012.6 |
| 20260503221304 | 66 | 147 | 0.0 | 2.6 | 0.00 | 0.06 | 0.00 | 80 | 1012.7 |
| 20260503220818 | 66 | 148 | 1.7 | 2.6 | 0.00 | 0.06 | 0.00 | 80 | 1012.6 |
| 20260503220305 | 66 | 147 | 0.9 | 2.6 | 0.00 | 0.06 | 0.00 | 80 | 1012.7 |
| 20260503215804 | 66 | 148 | 0.0 | 1.7 | 0.00 | 0.06 | 0.06 | 80 | 1012.4 |
| 20260503215304 | 66 | 148 | 1.7 | 4.3 | 0.00 | 0.06 | 0.06 | 80 | 1012.5 |
| 20260503214804 | 66 | 148 | 1.7 | 2.6 | 0.00 | 0.06 | 0.06 | 80 | 1012.6 |
| 20260503214304 | 66 | 147 | 0.0 | 1.7 | 0.00 | 0.06 | 0.06 | 80 | 1012.6 |
| 20260503213804 | 66 | 147 | 0.0 | 0.0 | 0.00 | 0.06 | 0.06 | 79 | 1012.7 |
| 20260503213304 | 66 | 147 | 0.0 | 0.0 | 0.00 | 0.06 | 0.06 | 79 | 1012.8 |
| 20260503212804 | 66 | 147 | 0.0 | 0.9 | 0.00 | 0.06 | 0.06 | 79 | 1013.1 |
| 20260503212305 | 66 | 147 | 0.9 | 1.7 | 0.00 | 0.06 | 0.06 | 79 | 1013.1 |
| 20260503211804 | 66 | 147 | 1.7 | 2.6 | 0.00 | 0.06 | 0.06 | 79 | 1013.0 |
| 20260503210804 | 66 | 147 | 1.7 | 4.3 | 0.00 | 0.06 | 0.06 | 78 | 1013.0 |
| 20260503210304 | 66 | 134 | 2.6 | 4.3 | 0.00 | 0.06 | 0.06 | 79 | 1013.0 |
| 20260503205804 | 66 | 146 | 1.7 | 2.6 | 0.00 | 0.06 | 0.06 | 78 | 1012.9 |
| 20260503204804 | 67 | 146 | 2.6 | 4.3 | 0.00 | 0.06 | 0.06 | 78 | 1012.7 |
| 20260503204304 | 67 | 146 | 2.6 | 4.3 | 0.00 | 0.06 | 0.06 | 78 | 1012.7 |
| 20260503203804 | 66 | 146 | 2.6 | 4.3 | 0.00 | 0.06 | 0.06 | 78 | 1012.6 |
| 20260503203304 | 66 | 146 | 1.7 | 4.3 | 0.00 | 0.06 | 0.06 | 78 | 1012.5 |
| 20260503202804 | 66 | 146 | 1.7 | 2.6 | 0.00 | 0.06 | 0.06 | 78 | 1012.5 |
| 20260503202304 | 66 | 146 | 0.9 | 2.6 | 0.00 | 0.06 | 0.06 | 78 | 1012.4 |
| 20260503201804 | 66 | 146 | 0.9 | 1.7 | 0.00 | 0.06 | 0.06 | 78 | 1012.3 |
| 20260503201304 | 66 | 146 | 0.9 | 2.6 | 0.00 | 0.06 | 0.06 | 78 | 1012.3 |
| 20260503200803 | 66 | 146 | 0.9 | 2.6 | 0.00 | 0.06 | 0.06 | 77 | 1012.2 |
| 20260503195804 | 66 | 147 | 0.9 | 2.6 | 0.00 | 0.06 | 0.06 | 77 | 1012.1 |
| 20260503195304 | 66 | 146 | 1.7 | 4.3 | 0.00 | 0.06 | 0.06 | 77 | 1012.0 |
| 20260503194803 | 66 | 146 | 0.0 | 0.0 | 0.00 | 0.06 | 0.06 | 77 | 1011.8 |
| 20260503193803 | 66 | 146 | 1.7 | 4.3 | 0.00 | 0.06 | 0.06 | 77 | 1011.6 |
| 20260503193304 | 66 | 146 | 1.7 | 2.6 | 0.00 | 0.06 | 0.06 | 77 | 1011.6 |
| 20260503192804 | 66 | 143 | 4.3 | 6.1 | 0.00 | 0.06 | 0.06 | 77 | 1011.5 |
| 20260503192305 | 66 | 143 | 3.5 | 5.2 | 0.00 | 0.06 | 0.06 | 77 | 1011.3 |
| 20260503191804 | 67 | 106 | 5.2 | 7.0 | 0.00 | 0.06 | 0.06 | 78 | 1011.2 |
| 20260503191304 | 67 | 104 | 4.3 | 7.0 | 0.00 | 0.06 | 0.06 | 79 | 1011.3 |
| 20260503190804 | 67 | 125 | 4.3 | 7.0 | 0.00 | 0.06 | 0.06 | 79 | 1011.4 |
| 20260503190303 | 67 | 125 | 3.5 | 6.1 | 0.00 | 0.06 | 0.06 | 78 | 1011.4 |
| 20260503185804 | 67 | 155 | 1.7 | 4.3 | 0.00 | 0.06 | 0.06 | 78 | 1011.7 |
| 20260503184804 | 67 | 155 | 3.5 | 5.2 | 0.00 | 0.06 | 0.06 | 78 | 1011.9 |
| 20260503184303 | 67 | 155 | 2.6 | 6.1 | 0.00 | 0.06 | 0.06 | 78 | 1011.7 |
| 20260503183803 | 67 | 143 | 4.3 | 6.1 | 0.00 | 0.06 | 0.06 | 78 | 1011.5 |
| 20260503183304 | 68 | 122 | 3.5 | 7.0 | 0.00 | 0.06 | 0.06 | 78 | 1011.5 |
| 20260503182804 | 68 | 112 | 4.3 | 7.0 | 0.00 | 0.06 | 0.06 | 78 | 1011.5 |
| 20260503182305 | 68 | 149 | 4.3 | 6.1 | 0.00 | 0.06 | 0.06 | 78 | 1011.4 |
| 20260503181804 | 68 | 149 | 4.3 | 6.1 | 0.00 | 0.06 | 0.06 | 77 | 1011.4 |
| 20260503181303 | 68 | 147 | 4.3 | 7.0 | 0.00 | 0.06 | 0.06 | 77 | 1011.5 |
| 20260503180804 | 68 | 119 | 4.3 | 6.1 | 0.00 | 0.06 | 0.06 | 77 | 1011.4 |
| 20260503175804 | 68 | 135 | 2.6 | 6.1 | 0.00 | 0.06 | 0.06 | 77 | 1011.2 |
| 20260503174804 | 68 | 102 | 4.3 | 5.2 | 0.00 | 0.06 | 0.06 | 76 | 1011.3 |
| 20260503174304 | 68 | 90 | 4.3 | 5.2 | 0.00 | 0.06 | 0.06 | 76 | 1011.3 |
| 20260503173804 | 69 | 115 | 3.5 | 6.1 | 0.00 | 0.06 | 0.06 | 75 | 1011.2 |
| 20260503173303 | 69 | 73 | 2.6 | 7.0 | 0.00 | 0.06 | 0.06 | 74 | 1011.4 |
| 20260503172305 | 69 | 108 | 4.3 | 7.8 | 0.00 | 0.06 | 0.06 | 73 | 1011.4 |
| 20260503140305 | 71 | 31 | 5.2 | 7.8 | 0.00 | 0.06 | 0.06 | 69 | 1012.5 |
| 20260503131305 | 72 | 30 | 4.3 | 8.7 | 0.00 | 0.06 | 0.06 | 65 | 1012.7 |
| 20260503130804 | 72 | 59 | 4.3 | 7.0 | 0.00 | 0.06 | 0.06 | 64 | 1012.7 |
| 20260503110805 | 70 | 94 | 4.3 | 7.0 | 0.00 | 0.06 | 0.06 | 74 | 1013.7 |
| 20260503110305 | 70 | 115 | 4.3 | 6.1 | 0.00 | 0.06 | 0.06 | 75 | 1013.7 |
| 20260503081304 | 65 | 126 | 1.7 | 2.6 | 0.03 | 0.07 | 0.06 | 88 | 1014.6 |
| 20260503080805 | 65 | 125 | 0.9 | 2.6 | 0.02 | 0.06 | 0.05 | 88 | 1014.6 |
| 20260503080304 | 65 | 125 | 0.9 | 4.3 | 0.02 | 0.06 | 0.05 | 88 | 1014.4 |
| 20260503072804 | 66 | 130 | 1.7 | 4.3 | 0.00 | 0.04 | 0.03 | 86 | 1014.3 |
| 20260503071804 | 65 | 108 | 1.7 | 4.3 | 0.00 | 0.04 | 0.03 | 86 | 1014.1 |
| 20260503070805 | 65 | 105 | 0.9 | 1.7 | 0.00 | 0.04 | 0.03 | 87 | 1014.1 |
| 20260503060304 | 65 | 105 | 1.7 | 4.3 | 0.00 | 0.04 | 0.03 | 87 | 1013.7 |
| 20260503054804 | 64 | 103 | 0.9 | 2.6 | 0.00 | 0.04 | 0.03 | 87 | 1013.9 |
| 20260503054304 | 64 | 103 | 0.9 | 2.6 | 0.00 | 0.04 | 0.03 | 87 | 1013.8 |
| 20260503053804 | 64 | 103 | 0.9 | 2.6 | 0.00 | 0.04 | 0.03 | 87 | 1013.8 |
| 20260503051804 | 64 | 103 | 1.7 | 4.3 | 0.00 | 0.04 | 0.03 | 87 | 1013.6 |
| 20260503051304 | 64 | 91 | 0.9 | 4.3 | 0.00 | 0.04 | 0.03 | 87 | 1013.5 |
| 20260503050805 | 65 | 98 | 0.0 | 0.9 | 0.00 | 0.04 | 0.03 | 87 | 1013.4 |
| 20260503050304 | 65 | 98 | 0.0 | 0.0 | 0.00 | 0.04 | 0.03 | 87 | 1013.5 |
| 20260503045804 | 65 | 98 | 0.0 | 0.9 | 0.00 | 0.04 | 0.03 | 87 | 1013.6 |
| 20260503045305 | 65 | 98 | 0.0 | 0.0 | 0.00 | 0.04 | 0.03 | 86 | 1013.6 |
| 20260503044804 | 65 | 98 | 0.9 | 1.7 | 0.00 | 0.04 | 0.03 | 86 | 1013.7 |
| 20260503044304 | 65 | 98 | 0.9 | 2.6 | 0.00 | 0.04 | 0.03 | 86 | 1013.7 |
| 20260503043804 | 65 | 98 | 0.9 | 2.6 | 0.00 | 0.04 | 0.03 | 86 | 1013.6 |
| 20260503043305 | 65 | 98 | 0.9 | 2.6 | 0.00 | 0.04 | 0.03 | 86 | 1013.6 |
| 20260503042804 | 65 | 99 | 0.9 | 1.7 | 0.00 | 0.04 | 0.03 | 86 | 1013.6 |
| 20260503042305 | 65 | 99 | 1.7 | 4.3 | 0.00 | 0.04 | 0.03 | 86 | 1013.7 |
| 20260503041805 | 65 | 98 | 0.9 | 1.7 | 0.00 | 0.04 | 0.03 | 86 | 1013.7 |
| 20260503041305 | 65 | 98 | 0.9 | 2.6 | 0.00 | 0.04 | 0.03 | 86 | 1013.6 |
| 20260503040804 | 65 | 98 | 1.7 | 4.3 | 0.00 | 0.04 | 0.03 | 87 | 1013.5 |
| 20260503035804 | 64 | 98 | 1.7 | 2.6 | 0.00 | 0.04 | 0.03 | 88 | 1013.5 |
| 20260503035305 | 64 | 98 | 0.9 | 1.7 | 0.00 | 0.04 | 0.03 | 88 | 1013.5 |
| 20260503034804 | 64 | 99 | 0.9 | 1.7 | 0.00 | 0.04 | 0.03 | 89 | 1013.5 |
| 20260503034304 | 64 | 98 | 0.9 | 2.6 | 0.00 | 0.04 | 0.03 | 89 | 1013.6 |
| 20260503033305 | 64 | 21 | 0.9 | 2.6 | 0.00 | 0.04 | 0.03 | 89 | 1013.6 |
| 20260503032804 | 65 | 31 | 0.0 | 0.0 | 0.00 | 0.04 | 0.03 | 89 | 1013.5 |
| 20260503032304 | 64 | 31 | 0.9 | 1.7 | 0.00 | 0.04 | 0.03 | 90 | 1013.5 |
| 20260503031804 | 64 | 29 | 0.0 | 0.0 | 0.00 | 0.04 | 0.03 | 90 | 1013.6 |
| 20260503030804 | 64 | 0 | 0.0 | 2.6 | 0.00 | 0.04 | 0.03 | 90 | 1013.6 |
| 20260503025804 | 64 | 8 | 1.7 | 2.6 | 0.00 | 0.04 | 0.03 | 90 | 1013.5 |
| 20260503025305 | 64 | 29 | 0.9 | 1.7 | 0.00 | 0.04 | 0.03 | 90 | 1013.5 |
| 20260503024805 | 64 | 9 | 1.7 | 2.6 | 0.00 | 0.04 | 0.03 | 90 | 1013.7 |
| 20260503024304 | 64 | 29 | 0.0 | 1.7 | 0.00 | 0.04 | 0.03 | 90 | 1013.8 |
| 20260503023804 | 64 | 29 | 0.9 | 1.7 | 0.00 | 0.04 | 0.03 | 90 | 1014.0 |
| 20260503023304 | 64 | 29 | 0.0 | 0.0 | 0.00 | 0.04 | 0.03 | 90 | 1014.1 |
| 20260503022804 | 64 | 30 | 0.0 | 0.0 | 0.00 | 0.04 | 0.03 | 91 | 1014.2 |
| 20260503022305 | 64 | 30 | 0.9 | 1.7 | 0.00 | 0.04 | 0.03 | 90 | 1014.3 |
| 20260503021804 | 64 | 32 | 0.9 | 1.7 | 0.00 | 0.04 | 0.03 | 91 | 1014.3 |
| 20260503021304 | 64 | 32 | 0.0 | 0.9 | 0.00 | 0.04 | 0.03 | 91 | 1014.3 |
| 20260503020804 | 64 | 33 | 0.0 | 0.0 | 0.00 | 0.04 | 0.03 | 91 | 1014.4 |
| 20260503020304 | 64 | 34 | 0.9 | 1.7 | 0.00 | 0.04 | 0.03 | 91 | 1014.4 |
| 20260503015804 | 64 | 21 | 1.7 | 2.6 | 0.00 | 0.04 | 0.03 | 90 | 1014.4 |
| 20260503014804 | 64 | 10 | 2.6 | 2.6 | 0.00 | 0.04 | 0.03 | 90 | 1014.4 |
| 20260503014304 | 64 | 24 | 1.7 | 2.6 | 0.00 | 0.04 | 0.03 | 91 | 1014.5 |
| 20260503013804 | 64 | 25 | 1.7 | 2.6 | 0.00 | 0.04 | 0.03 | 90 | 1014.5 |
| 20260503013304 | 64 | 26 | 0.9 | 2.6 | 0.00 | 0.04 | 0.03 | 90 | 1014.5 |
| 20260503012804 | 64 | 25 | 1.7 | 2.6 | 0.00 | 0.04 | 0.03 | 90 | 1014.5 |
| 20260503012305 | 64 | 16 | 1.7 | 2.6 | 0.01 | 0.04 | 0.03 | 90 | 1014.6 |
| 20260503011805 | 64 | 26 | 0.9 | 2.6 | 0.01 | 0.04 | 0.03 | 90 | 1014.8 |
| 20260503011305 | 64 | 24 | 0.0 | 1.7 | 0.01 | 0.04 | 0.03 | 90 | 1014.8 |
| 20260503010804 | 64 | 28 | 0.9 | 2.6 | 0.01 | 0.04 | 0.03 | 90 | 1015.0 |
| 20260503010304 | 64 | 29 | 0.9 | 2.6 | 0.02 | 0.04 | 0.03 | 90 | 1014.9 |
| 20260503005304 | 65 | 26 | 1.7 | 2.6 | 0.02 | 0.04 | 0.03 | 90 | 1015.1 |
| 20260503004804 | 64 | 28 | 0.0 | 0.9 | 0.02 | 0.04 | 0.03 | 90 | 1015.1 |
| 20260503003804 | 64 | 26 | 0.0 | 0.0 | 0.03 | 0.04 | 0.03 | 89 | 1015.1 |
| 20260503003305 | 64 | 24 | 0.0 | 1.7 | 0.03 | 0.04 | 0.03 | 89 | 1015.2 |
| 20260503002804 | 64 | 28 | 0.0 | 1.7 | 0.03 | 0.04 | 0.03 | 89 | 1015.3 |
| 20260503002305 | 64 | 25 | 0.0 | 2.6 | 0.02 | 0.03 | 0.02 | 89 | 1015.4 |